Terminal Aerodrome Forecast
Issued by NWS

Home | Current Version | Previous Version | Text Only | Print | Product List | Glossary On
Versions: 1 2 3 4 5 6 7 8 9 10 11 12 13 14 15 16 17 18 19
000
FTUS43 KAPX 161200 AAA
TAFMBL
TAF AMD
KMBL 161200Z 1612/1712 00000KT P6SM MIFG SCT040
      TEMPO 1612/1613 1/2SM FG
     FM161400 27009KT P6SM FEW040
     FM170100 25003KT P6SM FEW080
      AMD LTD TO CLD VIS AND WIND=

USA.gov is the U.S. government's official web portal to all federal, state and local government web resources and services.